Regional Weather Roundup
Issued by NWS Nashville, TN

Home | Current Version | Previous Version | Text Only | Print | Product List | Glossary On
Versions: 1 2 3 4 5 6 7 8 9 10 11 12 13 14 15 16 17 18 19 20 21 22 23 24 25 26 27
000
ASUS44 KOHX 200610
RWROHX
MIDDLE TENNESSEE HOURLY WEATHER ROUNDUP
NATIONAL WEATHER SERVICE NASHVILLE TN
1200 AM CST FRI JAN 20 2017

NOTE: "FAIR" INDICATES FEW OR NO CLOUDS BELOW 12,000 FEET WITH
NO SIGNIFICANT WEATHER AND/OR OBSTRUCTIONS TO VISIBILITY.

* THESE REPORTS ARE NOT UNDER NWS QUALITY CONTROL AND MAY NOT
  REPORT WEATHER SUCH AS PRECIPITATION AND FOG.


TNZ005>011-023>034-057-059-062>066-078-080-200700
...NORTHERN MIDDLE TENNESSEE...

CITY           SKY/WX    TMP DP  RH WIND       PRES   REMARKS
CLARKSVILLE    LGT RAIN  56  54  93 SW5       29.67F
CROSSVILLE     CLOUDY    53  51  93 S9G22     29.72F
GALLATIN       CLOUDY    57  57 100 CALM      29.71R
LEBANON        CLOUDY    57  56  97 SW3       29.66F
NASHVILLE      CLOUDY    57  55  93 CALM      29.69S
PORTLAND       CLOUDY    57  57 100 SW6       29.68S
SMYRNA         LGT RAIN  57  57 100 CALM      29.69F
SPRINGFIELD    CLOUDY    57  57 100 SW7       29.68R
WEST NASHVILLE MOCLDY    55  55 100 SW6       29.68S
$$
TNZ056-058-060-061-075>077-079-093>097-200700
...SOUTHERN MIDDLE TENNESSEE...

CITY           SKY/WX    TMP DP  RH WIND       PRES   REMARKS
COLUMBIA       CLEAR    N/A N/A N/A SW5       29.67F
MCMINNVILLE    CLOUDY    57  57 100 CALM      29.70F
MURFREESBORO   CLOUDY    57  57 100 S3        29.68F
SHELBYVILLE    PTCLDY    57  57 100 S3        29.72R
TULLAHOMA      CLOUDY    57  57 100 SW7       29.73R
WINCHESTER     CLOUDY    59  57  94 S3        29.72S
$$


...KEY TO REMARKS...
VSB - VISIBILITY IN MILES
WCI - WIND CHILL INDEX
HX  - HEAT INDEX





USA.gov is the U.S. government's official web portal to all federal, state and local government web resources and services.